TimeMST,TemperatureF,Dew PointF,Humidity,Sea Level PressureIn,VisibilityMPH,Wind Direction,Wind SpeedMPH,Gust SpeedMPH,PrecipitationIn,Events,Conditions,WindDirDegrees,DateUTC
12:53 AM,59.0,28.9,32,29.52,10.0,West,26.5,35.7,N/A,,Clear,270,2012-12-03 07:53:00
1:44 AM,60.8,30.2,31,29.63,6.0,West,40.3,57.5,N/A,,Haze,270,2012-12-03 08:44:00
1:53 AM,60.1,32.0,35,29.55,9.0,West,29.9,54.1,N/A,,Mostly Cloudy,260,2012-12-03 08:53:00
2:53 AM,54.0,33.1,45,29.60,10.0,West,16.1,26.5,N/A,,Scattered Clouds,280,2012-12-03 09:53:00
3:39 AM,50.0,33.8,54,29.73,10.0,NW,13.8,-,N/A,,Clear,320,2012-12-03 10:39:00
3:53 AM,48.9,34.0,56,29.68,10.0,NNW,15.0,21.9,N/A,,Clear,330,2012-12-03 10:53:00
4:53 AM,42.1,34.0,73,29.77,10.0,NNW,20.7,34.5,N/A,,Clear,340,2012-12-03 11:53:00
5:53 AM,39.9,30.0,68,29.86,10.0,NNW,16.1,23.0,N/A,,Clear,340,2012-12-03 12:53:00
6:53 AM,42.1,25.0,51,29.92,10.0,NNW,20.7,28.8,N/A,,Overcast,340,2012-12-03 13:53:00
8:53 AM,43.0,27.0,53,29.99,10.0,WNW,11.5,-,N/A,,Clear,300,2012-12-03 15:53:00
9:53 AM,46.0,27.0,47,30.00,10.0,WNW,9.2,-,N/A,,Clear,290,2012-12-03 16:53:00
10:53 AM,48.0,26.1,42,29.97,10.0,West,9.2,-,N/A,,Clear,280,2012-12-03 17:53:00
12:53 PM,51.1,17.1,26,29.94,10.0,WNW,8.1,19.6,N/A,,Clear,300,2012-12-03 19:53:00
1:53 PM,52.0,15.1,23,29.94,10.0,WNW,10.4,-,N/A,,Clear,290,2012-12-03 20:53:00
2:53 PM,52.0,15.1,23,29.96,10.0,WSW,15.0,20.7,N/A,,Clear,240,2012-12-03 21:53:00
3:53 PM,48.0,15.1,27,30.01,10.0,West,13.8,-,N/A,,Clear,260,2012-12-03 22:53:00
4:53 PM,45.0,15.1,30,30.05,10.0,West,13.8,-,N/A,,Clear,270,2012-12-03 23:53:00
5:53 PM,42.1,14.0,32,30.08,10.0,West,10.4,-,N/A,,Clear,280,2012-12-04 00:53:00
6:53 PM,39.9,12.9,33,30.10,10.0,WNW,9.2,-,N/A,,Clear,290,2012-12-04 01:53:00
7:53 PM,39.9,10.0,29,30.14,10.0,WNW,6.9,-,N/A,,Clear,290,2012-12-04 02:53:00
8:53 PM,39.0,10.0,30,30.16,10.0,West,6.9,-,N/A,,Clear,270,2012-12-04 03:53:00
9:53 PM,37.0,10.0,33,30.17,10.0,West,4.6,-,N/A,,Clear,260,2012-12-04 04:53:00
10:53 PM,37.9,12.0,35,30.17,10.0,WNW,11.5,-,N/A,,Clear,300,2012-12-04 05:53:00
11:53 PM,35.1,12.9,40,30.18,10.0,West,12.7,18.4,N/A,,Clear,280,2012-12-04 06:53:00